Location: Kershaw
(34.5481°N, 80.5823°W)
Time: 09:57:54
(UTC+00:00)

Altair - Pass Details

Date: 11 October 2022
Orbit: 1501 x 1682 km, 47.2° (Epoch: 30 November)

Event Time Altitude Azimuth Distance (km) Brightness Sun altitude
Rises 05:00:10 0° 179° (S) 4,640 - -62.4°
Reaches altitude 10° 05:04:31 10° 161° (SSE) 3,684 - -62.4°
Maximum altitude 05:10:05 18° 123° (ESE) 3,162 - -62.5°
Drops below altitude 10° 05:15:44 10° 86° (E) 3,770 - -62.4°
Exits shadow 05:19:47 - 70° (ENE) 4,682 10.2 -62.4°
Sets 05:20:13 0° 68° (ENE) 4,794 10.3 -62.4°
